Skip to main content.
Our real time weather data display below is updated continuously via our 24/7 live data feed.
 TIME   TEMPERATURE   WINDSPEED   DIRECTION   HUMIDITY   BAROMETER   RAINFALL 
8:35 19.0°C (66.2°F) 7.4 kmh (4.6 mph) E 93% 1020.0hPa (30.12 inHg) 0.0mm (0.00 in.)
7:35 18.0°C (64.4 °F) 3.7 kmh (2.3 mph) NE 93% 1020.0hPa (30.12 inHg) 0.0mm (0.00 in.)
6:35 18.0°C (64.4 °F) 5.6 kmh (3.5 mph) ENE 93% 1020.0hPa (30.12 inHg) 0.0mm (0.00 in.)
5:35 18.0°C (64.4 °F) 1.9 kmh (1.2 mph) NE 93% 1020.0hPa (30.12 inHg) 0.0mm (0.00 in.)
4:35 18.0°C (64.4 °F) 1.9 kmh (1.2 mph) ESE 93% 1020.0hPa (30.12 inHg) 0.0mm (0.00 in.)
3:35 18.0°C (64.4 °F) 1.9 kmh (1.2 mph) ESE 93% 1020.0hPa (30.12 inHg) 0.0mm (0.00 in.)
2:35 19.0°C (66.2 °F) 3.7 kmh (2.3 mph) E 88% 1021.0hPa (30.15 inHg) 0.0mm (0.00 in.)
1:35 19.0°C (66.2 °F) 7.4 kmh (4.6 mph) SE 88% 1021.0hPa (30.15 inHg) 0.0mm (0.00 in.)
0:35 20.0°C (68.0 °F) 7.4 kmh (4.6 mph) SE 82% 1021.0hPa (30.15 inHg) 0.0mm (0.00 in.)
23:35 20.0°C (68.0 °F) 7.4 kmh (4.6 mph) SE 82% 1021.0hPa (30.15 inHg) 0.0mm (0.00 in.)
22:35 20.0°C (68.0 °F) 5.6 kmh (3.5 mph) SE 88% 1021.0hPa (30.15 inHg) 0.0mm (0.00 in.)
21:35 20.0°C (68.0 °F) 7.4 kmh (4.6 mph) ESE 88% 1021.0hPa (30.15 inHg) 0.0mm (0.00 in.)
20:35 21.0°C (69.8 °F) 9.3 kmh (5.8 mph) ESE 82% 1021.0hPa (30.15 inHg) 0.0mm (0.00 in.)
19:35 21.0°C (69.8 °F) 11.1 kmh (6.9 mph) SE 82% 1021.0hPa (30.15 inHg) 0.0mm (0.00 in.)
18:35 22.0°C (71.6 °F) 13.0 kmh (8.1 mph) SE 78% 1021.0hPa (30.15 inHg) 0.0mm (0.00 in.)
17:35 24.0°C (75.2 °F) 14.8 kmh (9.2 mph) ESE 69% 1021.0hPa (30.15 inHg) 0.0mm (0.00 in.)
16:35 25.0°C (77.0 °F) 11.1 kmh (6.9 mph) SSE 65% 1021.0hPa (30.15 inHg) 0.0mm (0.00 in.)
15:35 26.0°C (78.8 °F) 14.8 kmh (9.2 mph) S 61% 1021.0hPa (30.15 inHg) 0.0mm (0.00 in.)
14:35 25.0°C (77.0 °F) 16.7 kmh (10.4 mph) SE 65% 1022.0hPa (30.18 inHg) 0.0mm (0.00 in.)
13:35 25.0°C (77.0 °F) 18.5 kmh (11.5 mph) SSE 61% 1022.0hPa (30.18 inHg) 0.0mm (0.00 in.)
12:35 24.0°C (75.2 °F) 14.8 kmh (9.2 mph) SE 64% 1023.0hPa (30.21 inHg) 0.0mm (0.00 in.)
11:30 24.0°C (75.2 °F) 11.1 kmh (6.9 mph) SSE 69% 1022.0hPa (30.18 inHg) 0.0mm (0.00 in.)
10:30 23.0°C (73.4 °F) 13.0 kmh (8.1 mph) SE 73% 1022.0hPa (30.18 inHg) 0.0mm (0.00 in.)
9:30 22.0°C (71.6 °F) 7.4 kmh (4.6 mph) SSE 83% 1022.0hPa (30.18 inHg) 0.0mm (0.00 in.)